User: anonymous
Location: Rancho Del Sol Observatory
(38.7214°N, 120.6350°W)
Time: 17:07:47
(UTC-07:00)
Language:

Cosmos 2221 Rocket - Orbit

View from above orbital plane
View from above orbital plane
View from above satellite
View from above satellite

Ground track
Ground track

The orbit data is extracted from the following two-line orbital elements,

1 22237U 92080B   14110.51658578  .00000721  00000-0  97001-4 0  3048
2 22237 082.5097 110.6116 0020045 022.2821 094.4417 14.77820405153010
Epoch (UTC): 20 April 2014 12:23:53
Eccentricity: 0.0020045
inclination: 82.5097°
perigee height: 622 km
apogee height: 650 km
right ascension of ascending node: 110.6116°
argument of perigee: 22.2821°
revolutions per day: 14.77820405
mean anomaly at epoch: 94.4417°
orbit number at epoch: 15301

The dashed part of the orbit path shows where the satellite is in the earth's shadow,  

DLR